When you browse on this site, cookies collect data to enhance your experience and personalize the content and advertising you see.
Visit our Privacy Policy to learn more. By continuing to use the site, you agree to this use of cookies and data.
  • In Sweden
  • List of Countries
  • For 7 days
  • Water Temperature
  • Weather Map
  • Weather Widgets
  • user-avatar
    Login

    Hourly Weather Bakuriani

    Today, 30 May, Saturday

    Time Temperature Precipitation Wind Pressure Humidity
    00:00 +6°C° 0 mm 2 mps 588 mmHg 95%
    01:00 +7°C° 0 mm 1 mps 588 mmHg 96%
    02:00 +6°C° 0 mm 1 mps 588 mmHg 96%
    03:00 +5°C° 0 mm 2 mps 588 mmHg 95%
    04:00 +6°C° 0 mm 1 mps 588 mmHg 94%
    05:00 +6°C° 0 mm 1 mps 588 mmHg 94%
    06:00 +6°C° 0 mm 1 mps 589 mmHg 93%
    07:00 +8°C° 0 mm 1 mps 589 mmHg 86%
    08:00 +9°C° 0 mm 1 mps 590 mmHg 79%
    09:00 +11°C° 0 mm 1 mps 590 mmHg 66%
    10:00 +13°C° 0 mm 2 mps 591 mmHg 59%
    11:00 +14°C° 0 mm 2 mps 592 mmHg 52%
    12:00 +16°C° 0 mm 2 mps 592 mmHg 44%
    13:00 +16°C° 0 mm 2 mps 592 mmHg 46%
    14:00 +16°C° 0 mm 2 mps 592 mmHg 47%
    15:00 +14°C° 0 mm 3 mps 592 mmHg 53%
    16:00 +13°C° 0.1 mm 3 mps 591 mmHg 59%
    17:00 +13°C° 0.1 mm 2 mps 591 mmHg 65%
    18:00 +12°C° 0.1 mm 2 mps 590 mmHg 71%
    19:00 +9°C° 0 mm 2 mps 590 mmHg 78%
    20:00 +8°C° 0 mm 1 mps 589 mmHg 85%
    21:00 +6°C° 0 mm 1 mps 589 mmHg 92%
    22:00 +5°C° 0 mm 1 mps 589 mmHg 93%
    23:00 +5°C° 0 mm 1 mps 589 mmHg 94%

    Tomorrow, 31 May, Sunday

    Time Temperature Precipitation Wind Pressure Humidity
    00:00 +5°C° 0 mm 1 mps 589 mmHg 95%
    01:00 +4°C° 0 mm 1 mps 589 mmHg 94%
    02:00 +4°C° 0 mm 1 mps 589 mmHg 93%
    03:00 +4°C° 0 mm 1 mps 588 mmHg 93%
    04:00 +4°C° 0 mm 1 mps 589 mmHg 89%
    05:00 +5°C° 0 mm 1 mps 589 mmHg 86%
    06:00 +6°C° 0 mm 1 mps 590 mmHg 82%
    07:00 +8°C° 0 mm 1 mps 591 mmHg 72%
    08:00 +10°C° 0 mm 1 mps 592 mmHg 63%
    09:00 +13°C° 0 mm 1 mps 593 mmHg 53%
    10:00 +14°C° 0 mm 1 mps 593 mmHg 49%
    11:00 +15°C° 0 mm 1 mps 593 mmHg 44%
    12:00 +18°C° 0 mm 1 mps 594 mmHg 40%
    13:00 +16°C° 0.1 mm 2 mps 593 mmHg 41%
    14:00 +16°C° 0.1 mm 2 mps 593 mmHg 43%
    15:00 +16°C° 0.1 mm 2 mps 592 mmHg 45%
    16:00 +15°C° 0.1 mm 2 mps 592 mmHg 50%
    17:00 +14°C° 0.1 mm 2 mps 591 mmHg 55%
    18:00 +13°C° 0.1 mm 2 mps 591 mmHg 60%
    19:00 +10°C° 0 mm 2 mps 590 mmHg 65%
    20:00 +9°C° 0 mm 1 mps 589 mmHg 70%
    21:00 +7°C° 0 mm 1 mps 589 mmHg 75%
    22:00 +7°C° 0 mm 1 mps 589 mmHg 75%
    23:00 +7°C° 0 mm 1 mps 588 mmHg 76%

    Day after tomorrow, 1 June, Monday

    Time Temperature Precipitation Wind Pressure Humidity
    00:00 +7°C° 0 mm 1 mps 588 mmHg 76%
    01:00 +6°C° 0 mm 2 mps 588 mmHg 78%
    02:00 +5°C° 0 mm 2 mps 588 mmHg 80%
    03:00 +5°C° 0 mm 2 mps 587 mmHg 82%
    04:00 +6°C° 0 mm 2 mps 588 mmHg 81%
    05:00 +6°C° 0 mm 2 mps 588 mmHg 80%
    06:00 +7°C° 0 mm 2 mps 588 mmHg 78%
    07:00 +9°C° 0 mm 2 mps 589 mmHg 70%
    08:00 +12°C° 0 mm 2 mps 590 mmHg 61%
    09:00 +14°C° 0 mm 2 mps 591 mmHg 53%
    10:00 +16°C° 0 mm 3 mps 591 mmHg 49%
    11:00 +17°C° 0 mm 3 mps 591 mmHg 45%
    12:00 +18°C° 0 mm 4 mps 591 mmHg 42%
    13:00 +18°C° 0.1 mm 4 mps 591 mmHg 42%
    14:00 +18°C° 0.1 mm 4 mps 591 mmHg 43%
    15:00 +18°C° 0.1 mm 4 mps 591 mmHg 43%
    16:00 +17°C° 0.3 mm 3 mps 590 mmHg 52%
    17:00 +16°C° 0.3 mm 3 mps 590 mmHg 60%
    18:00 +15°C° 0.3 mm 2 mps 590 mmHg 68%
    19:00 +13°C° 0.2 mm 2 mps 589 mmHg 72%
    20:00 +9°C° 0.2 mm 2 mps 588 mmHg 76%
    21:00 +7°C° 0.2 mm 2 mps 587 mmHg 79%
    22:00 +6°C° 0 mm 2 mps 587 mmHg 76%
    23:00 +6°C° 0 mm 2 mps 587 mmHg 73%

    2 June, Tuesday

    Time Temperature Precipitation Wind Pressure Humidity
    00:00 +6°C° 0 mm 2 mps 586 mmHg 70%
    01:00 +6°C° 0 mm 2 mps 586 mmHg 69%
    02:00 +6°C° 0 mm 2 mps 586 mmHg 68%
    03:00 +6°C° 0 mm 2 mps 586 mmHg 67%
    04:00 +6°C° 0 mm 2 mps 586 mmHg 68%
    05:00 +7°C° 0 mm 2 mps 586 mmHg 69%
    06:00 +7°C° 0 mm 2 mps 586 mmHg 69%
    07:00 +10°C° 0 mm 3 mps 587 mmHg 62%
    08:00 +12°C° 0 mm 4 mps 588 mmHg 55%
    09:00 +15°C° 0 mm 5 mps 589 mmHg 47%
    10:00 +16°C° 0 mm 5 mps 590 mmHg 43%
    11:00 +19°C° 0 mm 5 mps 590 mmHg 39%
    12:00 +20°C° 0 mm 4 mps 591 mmHg 35%
    13:00 +20°C° 0 mm 4 mps 591 mmHg 36%
    14:00 +20°C° 0 mm 4 mps 590 mmHg 38%
    15:00 +20°C° 0 mm 4 mps 590 mmHg 39%
    16:00 +19°C° 0.1 mm 3 mps 590 mmHg 48%
    17:00 +17°C° 0.1 mm 3 mps 589 mmHg 56%
    18:00 +16°C° 0.1 mm 2 mps 589 mmHg 65%
    19:00 +14°C° 0.1 mm 2 mps 588 mmHg 68%
    20:00 +10°C° 0.1 mm 2 mps 587 mmHg 72%
    21:00 +8°C° 0.1 mm 2 mps 586 mmHg 75%
    22:00 +7°C° 0 mm 2 mps 586 mmHg 73%
    23:00 +6°C° 0 mm 2 mps 586 mmHg 70%

    3 June, Wednesday

    Time Temperature Precipitation Wind Pressure Humidity
    00:00 +7°C° 0 mm 1 mps 586 mmHg 68%
    01:00 +5°C° 0 mm 2 mps 586 mmHg 67%
    02:00 +5°C° 0 mm 2 mps 585 mmHg 65%
    03:00 +5°C° 0 mm 2 mps 585 mmHg 64%
    04:00 +5°C° 0 mm 2 mps 586 mmHg 63%
    05:00 +6°C° 0 mm 2 mps 586 mmHg 63%
    06:00 +7°C° 0 mm 2 mps 586 mmHg 62%
    07:00 +9°C° 0 mm 2 mps 587 mmHg 55%
    08:00 +13°C° 0 mm 2 mps 588 mmHg 49%
    09:00 +15°C° 0 mm 2 mps 589 mmHg 42%
    10:00 +16°C° 0 mm 3 mps 590 mmHg 43%
    11:00 +17°C° 0 mm 4 mps 590 mmHg 44%
    12:00 +17°C° 0 mm 5 mps 591 mmHg 44%
    13:00 +16°C° 0.2 mm 5 mps 590 mmHg 49%
    14:00 +15°C° 0.2 mm 4 mps 590 mmHg 55%
    15:00 +14°C° 0.2 mm 4 mps 589 mmHg 60%
    16:00 +13°C° 0.1 mm 3 mps 589 mmHg 62%
    17:00 +14°C° 0.1 mm 2 mps 589 mmHg 65%
    18:00 +14°C° 0.1 mm 1 mps 589 mmHg 67%
    19:00 +12°C° 0.4 mm 1 mps 589 mmHg 75%
    20:00 +9°C° 0.4 mm 2 mps 588 mmHg 83%
    21:00 +7°C° 0.4 mm 2 mps 587 mmHg 91%
    22:00 +7°C° 0.6 mm 1 mps 587 mmHg 92%
    23:00 +7°C° 0.6 mm 1 mps 587 mmHg 94%

    4 June, Thursday

    Time Temperature Precipitation Wind Pressure Humidity
    00:00 +7°C° 0.6 mm 1 mps 587 mmHg 96%
    01:00 +7°C° 0.3 mm 1 mps 586 mmHg 96%
    02:00 +6°C° 0.3 mm 0 mps 586 mmHg 96%
    03:00 +6°C° 0.3 mm 0 mps 586 mmHg 97%
    04:00 +6°C° 0.1 mm 0 mps 587 mmHg 96%
    05:00 +7°C° 0.1 mm 1 mps 587 mmHg 96%
    06:00 +8°C° 0.1 mm 1 mps 587 mmHg 95%
    07:00 +8°C° 0.1 mm 1 mps 587 mmHg 93%
    08:00 +9°C° 0.1 mm 1 mps 588 mmHg 90%
    09:00 +9°C° 0.1 mm 2 mps 588 mmHg 88%
    10:00 +10°C° 0.3 mm 2 mps 589 mmHg 84%
    11:00 +10°C° 0.3 mm 2 mps 589 mmHg 80%
    12:00 +11°C° 0.3 mm 3 mps 590 mmHg 76%
    13:00 +12°C° 0.3 mm 3 mps 590 mmHg 73%
    14:00 +12°C° 0.3 mm 3 mps 590 mmHg 71%
    15:00 +12°C° 0.3 mm 3 mps 591 mmHg 69%
    16:00 +13°C° 0.1 mm 2 mps 591 mmHg 72%
    17:00 +12°C° 0.1 mm 2 mps 590 mmHg 75%
    18:00 +10°C° 0.1 mm 2 mps 590 mmHg 79%
    19:00 +9°C° 0 mm 2 mps 590 mmHg 84%
    20:00 +8°C° 0 mm 1 mps 589 mmHg 88%
    21:00 +6°C° 0 mm 1 mps 589 mmHg 93%
    22:00 +6°C° 0 mm 1 mps 589 mmHg 87%
    23:00 +6°C° 0 mm 1 mps 589 mmHg 81%
    Show more